Location: Gro� Glienicke
(52.4675°N, 13.1079°E)
Time: 08:15:00
(UTC+00:00)

JB-3 - Pass Details

Date: 06 July 2020
Orbit: 525 x 591 km, 97.3° (Epoch: 04 August)

Event Time Altitude Azimuth Distance (km) Brightness Sun altitude
Rises 21:38:41 0° 12° (NNE) 2,698 8.9 -12.2°
Reaches altitude 10° 21:40:49 10° 11° (N) 1,795 7.9 -12.3°
Maximum altitude 21:44:41 77° 286° (WNW) 548 4.3 -12.6°
Enters shadow 21:48:01 13° 201° (SSW) 1,570 6.2 -12.7°
